Weather History for Wichita, KS

Change the Weather History Date:

Friday, June 28, 2013

  Actual Average Record
Temperature  
Mean Temperature 84 °F 79 °F  
Max Temperature 96 °F 91 °F 106 °F (1990)
Min Temperature 71 °F 68 °F 54 °F (1985)
Degree Days  
Heating Degree Days 0 0  
Month to date heating degree days 3 3  
Since 1 June heating degree days 3 3  
Since 1 July heating degree days 4477 4591  
Cooling Degree Days 19 14  
Month to date cooling degree days 378 299  
Year to date cooling degree days 516 435  
Since 1 June cooling degree days 378 299  
Growing Degree Days 32 (Base 50)    
Moisture  
Dew Point 65 °F    
Average Humidity 62    
Maximum Humidity 93    
Minimum Humidity 30    
Precipitation  
Precipitation 0.00 in 0.14 in 1.26 in (1922)
Month to date precipitation 1.83 4.92  
Year to date precipitation 15.85 16.78  
Snow  
Snow 0.00 in 0.00 in 0.00 in (2007)
Month to date snowfall 0.0 0.0  
Since 1 June snowfall 0.0 0.0  
Since 1 July snowfall 30.0 14.9  
Snow Depth 0.00 in    
Sea Level Pressure  
Sea Level Pressure 29.94 in    
Wind  
Wind Speed 9 mph (NNW)    
Max Wind Speed 23 mph    
Max Gust Speed 29 mph    
Visibility 10 miles    
Events      
T = Trace of Precipitation, MM = Missing Value Source: NWS Daily Summary

Daily Weather History Graph

Daily Weather History Graph

Search for Another Location

Airport:

Trip Planner

Search our weather history database for the weather conditions in past years. The results will help you decide how hot, cold, wet, or windy it might be!

Date:

Astronomy

Jun. 28, 2013 Rise Set
Actual Time 6:10 AM CDT 8:55 PM CDT
Civil Twilight 5:39 AM CDT 9:26 PM CDT
Nautical Twilight 5:00 AM CDT 10:05 PM CDT
Astronomical Twilight 4:16 AM CDT 10:49 PM CDT
Moon No Moon Rise 12:12 PM CDT (6/28)
Length of Visible Light 15h 46m
Length of Day
14h 44m
Waning Gibbous, 66% of the Moon is Illuminated
Jun 28
Waning Gibbous
Jun 29
Last Quarter
Jul 8
New
Jul 15
First Quarter
Jul 22
Full

Hourly Weather History & Observations

Time (CDT) Temp. Heat Index Dew Point Humidity Pressure Visibility Wind Dir Wind Speed Gust Speed Precip Events Conditions
12:53 AM 75.9 °F - 72.0 °F 87% 29.94 in 10.0 mi NNW 12.7 mph - N/A   Mostly Cloudy
1:53 AM 75.0 °F - 71.1 °F 87% 29.93 in 10.0 mi NNW 8.1 mph - N/A   Mostly Cloudy
2:53 AM 73.9 °F - 71.1 °F 91% 29.93 in 10.0 mi North 10.4 mph - N/A   Mostly Cloudy
3:53 AM 73.9 °F - 71.1 °F 91% 29.93 in 10.0 mi NNW 8.1 mph - N/A   Mostly Cloudy
4:53 AM 73.0 °F - 70.0 °F 90% 29.93 in 10.0 mi North 6.9 mph - N/A   Mostly Cloudy
5:53 AM 72.0 °F - 69.1 °F 91% 29.95 in 10.0 mi North 8.1 mph - N/A   Mostly Cloudy
6:53 AM 71.1 °F - 68.0 °F 90% 29.98 in 10.0 mi North 5.8 mph - N/A   Mostly Cloudy
7:53 AM 73.9 °F - 68.0 °F 82% 29.99 in 10.0 mi North 5.8 mph - N/A   Mostly Cloudy
8:53 AM 78.1 °F - 68.0 °F 71% 30.01 in 10.0 mi North 9.2 mph - N/A   Mostly Cloudy
9:53 AM 81.0 °F 83.3 °F 66.9 °F 62% 30.03 in 10.0 mi North 9.2 mph - N/A   Mostly Cloudy
10:53 AM 82.9 °F 86.5 °F 69.1 °F 63% 30.01 in 10.0 mi Variable 3.5 mph - N/A   Mostly Cloudy
11:53 AM 86.0 °F 89.4 °F 68.0 °F 55% 29.99 in 10.0 mi NW 8.1 mph - N/A   Mostly Cloudy
12:53 PM 90.0 °F 91.7 °F 64.9 °F 43% 29.97 in 10.0 mi NW 10.4 mph - N/A   Mostly Cloudy
1:53 PM 93.0 °F 94.2 °F 63.0 °F 37% 29.95 in 10.0 mi NNW 8.1 mph - N/A   Scattered Clouds
2:53 PM 93.9 °F 95.2 °F 63.0 °F 36% 29.93 in 10.0 mi WNW 11.5 mph - N/A   Scattered Clouds
3:53 PM 93.9 °F 97.0 °F 66.0 °F 40% 29.90 in 10.0 mi NNW 6.9 mph - N/A   Scattered Clouds
4:53 PM 95.0 °F 97.0 °F 64.0 °F 36% 29.89 in 10.0 mi NNW 18.4 mph 26.5 mph N/A   Scattered Clouds
5:53 PM 93.9 °F 93.2 °F 59.0 °F 31% 29.89 in 10.0 mi NNW 20.7 mph 25.3 mph N/A   Partly Cloudy
6:53 PM 93.0 °F 92.0 °F 57.9 °F 31% 29.88 in 10.0 mi North 15.0 mph - N/A   Partly Cloudy
7:53 PM 90.0 °F 88.8 °F 57.9 °F 34% 29.88 in 10.0 mi NNW 13.8 mph 27.6 mph N/A   Partly Cloudy
8:53 PM 86.0 °F 85.4 °F 59.0 °F 40% 29.89 in 10.0 mi NNE 8.1 mph - N/A   Partly Cloudy
9:53 PM 82.9 °F 82.6 °F 57.9 °F 42% 29.90 in 10.0 mi North 6.9 mph - N/A   Partly Cloudy
10:53 PM 80.1 °F 80.6 °F 57.9 °F 47% 29.91 in 10.0 mi NNE 6.9 mph - N/A   Partly Cloudy
11:53 PM 78.1 °F - 60.1 °F 54% 29.91 in 10.0 mi NNE 5.8 mph - N/A   Partly Cloudy